Weather in Agen

France     44°12′18″N   0°37′33″E
temp.,
°C
wind,
m/s
gust,
m/s
humid.,
%
clouds,
%
prec.,
mm/h
press.,
hPa
HPBL,
m
28 february, sun
sun2801:00+5nne23800 0.0 102747
04:00+4ne22830 0.0 102622
07:00+3ese22860 0.0 102625
10:00+7ese347916 0.0 1026286
13:00+12ese586824 0.0 10251136
16:00+14ese8116345 0.1 10231518
19:00+10ese5127825 0.1 1024389
22:00+8e514763 0.0 1025462
1 march, mon
mon101:00+8ese513801 0.0 1026476
04:00+7ese410870 0.0 1025277
07:00+6e410920 0.0 1025256
10:00+10se712800 0.0 1025660
13:00+15se710670 0.0 1024832
16:00+15se79640 0.0 1023928
19:00+11ese411790 0.0 1024338
22:00+9ese5137723 0.0 1026412
2 march, tue
tue201:00+8ese5148119 0.0 1026449
04:00+8ese514843 0.0 1026428
07:00+7ese514843 0.0 1026407
10:00+10se7137591 0.0 1027510
13:00+15se7106572 0.0 1027688
16:00+16se586374 0.0 1027767
19:00+12se358245 0.0 102897
22:00+9se38890 0.0 1030197
3 march, wed
wed301:00+8ese36890 0.0 1030134
04:00+7ese389026 0.0 1030171
07:00+7ese489455 0.0 1031189
10:00+11se588571 0.0 1031363
13:00+15se457038 0.0 1029616
16:00+17se23601 0.0 1027817
19:00+13ene227719 0.0 102723
22:00+11ese118361 0.0 102823
4 march, thu
thu401:00+10se128830 0.0 102722
04:00+8ese11900 0.0 102622
07:00+7se12920 0.0 102522
10:00+11ese22820 0.0 1025255
13:00+16nw11690 0.0 1023685
16:00+17nw336422 0.0 10211066
19:00+13nnw348023 0.0 102297
22:00+9n23810 0.0 102382